Location: Bédeille
(43.0872°N, 1.1041°E)
Time: 11:54:25
(UTC+00:00)

Cosmos 1745 Rocket - Pass Details

Date: 03 February 2023
Orbit: 951 x 999 km, 83.0° (Epoch: 19 March)

Event Time Altitude Azimuth Distance (km) Brightness Sun altitude
Rises 19:15:00 0° 351° (N) 3,692 7.1 -23.0°
Reaches altitude 10° 19:17:32 10° 351° (N) 2,734 6.4 -23.5°
Maximum altitude 19:23:48 86° 263° (W) 976 3.9 -24.6°
Drops below altitude 10° 19:29:57 10° 176° (S) 2,684 6.2 -25.7°
Sets 19:32:25 0° 176° (S) 3,621 6.9 -26.2°
